Stations météo

réclame
Mon MeteoGroup
Hallhåxåsen, Suède (2236): Température de l'air & dewpoint: 18.05.2019 05:00:00 - 24.05.2019 05:00:00 (CEST)Hallhåxåsen, Suède (2236): Vitesse du vent & gusts: 18.05.2019 05:00:00 - 24.05.2019 05:00:00 (CEST)Hallhåxåsen, Suède (2236): Direction du vent: 18.05.2019 05:00:00 - 24.05.2019 05:00:00 (CEST)Hallhåxåsen, Suède (2236): reduced air pressure: 18.05.2019 05:00:00 - 24.05.2019 05:00:00 (CEST)Hallhåxåsen, Suède (2236): visibility: 18.05.2019 05:00:00 - 24.05.2019 05:00:00 (CEST)Hallhåxåsen, Suède (2236): Quantités de précipitations: 18.05.2019 05:00:00 - 24.05.2019 05:00:00 (CEST)
Date & Time tt [°C] td [°C] ff [km/h] ff [knt] fx [km/h] fx [knt] dd ppp [hPa] vv [km] rr [mm]
24.05.2019 05:00:00 - - - - - - - - - -
24.05.2019 04:00:00 3,5 3,4 5 3 9 5 ENE 1010,1 0,5 0,0
24.05.2019 03:00:00 3,5 3,4 3 2 13 7 ENE 1010,2 0,7 0,0
24.05.2019 02:00:00 3,4 3,1 5 3 12 6 E 1010,6 2,6 0,0
24.05.2019 01:00:00 3,4 3,1 6 3 15 8 E 1011,2 3,1 0,0
24.05.2019 00:00:00 3,5 3,2 7 4 17 9 E 1011,5 2,1 0,0
23.05.2019 23:00:00 3,5 3,2 8 4 19 10 E 1011,8 2,4 0,0
23.05.2019 22:00:00 3,6 3,3 10 5 19 11 E 1012,0 3,8 0,0
23.05.2019 21:00:00 3,7 3,4 10 6 20 11 E 1011,9 4,4 0,0
23.05.2019 20:00:00 3,9 3,5 9 5 20 11 E 1012,1 14 0,0
23.05.2019 19:00:00 4,0 3,6 8 4 21 11 E 1012,3 6 0,1
23.05.2019 18:00:00 3,8 3,4 10 6 23 13 E 1012,5 4,6 0,4
23.05.2019 17:00:00 3,7 3,4 8 4 23 12 E 1012,8 3,1 0,3
23.05.2019 16:00:00 3,5 3,1 11 6 24 13 E 1013,1 6 0,4
23.05.2019 15:00:00 3,7 3,1 9 5 25 13 E 1013,5 9 1,1
23.05.2019 14:00:00 3,6 3,2 11 6 30 16 E 1013,8 8 0,9
23.05.2019 13:00:00 3,8 3,2 12 6 25 14 E 1013,9 4,0 1,3
23.05.2019 12:00:00 4,2 3,8 8 4 19 11 ENE 1013,8 4,9 1,4
23.05.2019 11:00:00 4,3 3,9 8 4 21 11 E 1013,9 11 1,9
23.05.2019 10:00:00 4,4 4,0 8 4 24 13 E 1013,8 17 1,3
23.05.2019 09:00:00 4,4 4,0 11 6 26 14 E 1013,9 9 0,8
23.05.2019 08:00:00 4,9 4,5 10 6 25 14 E 1014,0 4,7 0,5
23.05.2019 07:00:00 5,2 4,8 10 6 31 17 E 1013,7 21 0,1
23.05.2019 06:00:00 5,5 4,9 14 8 30 16 E 1013,5 50 0,0
23.05.2019 05:00:00 6,9 6,3 13 7 26 14 E 1013,7 23 0,1
23.05.2019 04:00:00 7,8 7,4 9 5 21 11 E 1013,8 19 2,7
23.05.2019 03:00:00 8,2 7,8 13 7 29 16 E 1013,4 8 4,3
23.05.2019 02:00:00 9,1 8,6 11 6 29 16 E 1012,7 4,8 5,0
23.05.2019 01:00:00 10,8 10,2 9 5 23 12 ESE 1012,2 7 -
23.05.2019 00:00:00 11,9 11,0 14 8 29 15 SSE 1011,5 5 3,8
22.05.2019 23:00:00 13,0 12,5 7 4 14 8 E 1011,2 13 0,2
22.05.2019 22:00:00 13,0 12,4 6 4 19 11 ENE 1011,2 22 0,1
22.05.2019 21:00:00 14,3 13,0 6 4 14 8 ENE 1011,1 17 0,7
22.05.2019 20:00:00 15,8 12,7 0 0 2 1 N 1010,5 45 0,0
22.05.2019 19:00:00 17,1 12,2 0 0 7 4 N 1010,1 50 0,0
22.05.2019 18:00:00 17,5 11,7 5 3 15 8 S 1010,1 49 0,0
22.05.2019 17:00:00 17,2 12,1 8 4 14 8 ESE 1010,6 45 0,0
22.05.2019 16:00:00 17,2 12,3 9 5 15 8 E 1010,8 46 0,4
22.05.2019 15:00:00 17,5 12,2 7 4 18 10 ENE 1011,1 48 0,0
22.05.2019 14:00:00 18,9 11,2 5 3 15 8 ESE 1011,1 46 0,0
22.05.2019 13:00:00 19,0 11,1 9 5 17 9 ESE 1011,4 43 0,0
22.05.2019 12:00:00 19,0 11,3 6 4 16 9 S 1011,8 45 0,0
22.05.2019 11:00:00 17,8 10,4 7 4 19 10 SSE 1012,3 45 0,0
22.05.2019 10:00:00 16,8 11,5 6 3 15 8 S 1012,8 41 0,0
22.05.2019 09:00:00 15,8 11,4 6 3 16 8 E 1013,1 46 0,0
22.05.2019 08:00:00 15,2 11,2 5 3 9 5 SE 1013,4 41 0,0
22.05.2019 07:00:00 13,4 10,9 0 0 11 6 N 1013,9 38 0,0
22.05.2019 06:00:00 12,6 10,1 5 3 10 5 E 1013,9 44 0,0
22.05.2019 05:00:00 11,2 10,3 5 3 12 7 NE 1014,2 22 0,0
22.05.2019 04:00:00 12,1 10,5 6 3 12 7 E 1014,3 34 0,0
22.05.2019 03:00:00 12,2 10,6 6 3 11 6 ENE 1014,4 26 0,0
22.05.2019 02:00:00 13,0 10,2 5 3 13 7 ENE 1014,1 47 0,0
22.05.2019 01:00:00 13,7 9,7 5 3 12 7 ENE 1014,1 50 0,0
22.05.2019 00:00:00 13,9 9,3 5 3 13 7 ENE 1014,0 50 0,0
21.05.2019 23:00:00 14,6 9,2 6 3 12 7 ENE 1013,7 50 0,0
21.05.2019 22:00:00 16,1 8,8 4 2 12 6 ENE 1013,3 50 0,0
21.05.2019 21:00:00 18,2 8,7 3 2 12 6 ENE 1012,8 50 0,0
21.05.2019 20:00:00 19,8 8,5 5 3 14 8 NE 1012,3 50 0,0
21.05.2019 19:00:00 20,6 7,6 7 4 13 7 E 1012,1 50 0,0
21.05.2019 18:00:00 20,7 8,3 3 2 11 6 NE 1012,3 50 0,0
21.05.2019 17:00:00 20,4 7,4 5 3 9 5 NE 1012,6 50 0,0
21.05.2019 16:00:00 20,0 7,7 4 2 15 8 ENE 1013,0 50 0,0
21.05.2019 15:00:00 19,9 8,3 7 4 14 8 ESE 1013,1 48 0,0
21.05.2019 14:00:00 19,2 8,2 9 5 18 10 ESE 1013,4 50 0,0
21.05.2019 13:00:00 19,5 8,2 5 3 18 10 NE 1013,5 50 0,0
21.05.2019 12:00:00 19,3 9,8 5 3 14 8 NE 1013,7 45 0,0
21.05.2019 11:00:00 18,2 8,7 5 3 14 8 NE 1013,9 40 0,0
21.05.2019 10:00:00 16,6 9,0 6 4 11 6 E 1014,3 48 0,0
21.05.2019 09:00:00 15,7 9,8 4 2 11 6 E 1014,4 41 0,0
21.05.2019 08:00:00 14,2 8,8 5 3 11 6 NE 1014,5 50 0,0
21.05.2019 07:00:00 13,0 8,9 4 2 8 5 NNE 1014,8 50 0,0
21.05.2019 06:00:00 11,2 8,1 4 2 13 7 NNE 1015,1 50 0,0
21.05.2019 05:00:00 9,9 7,3 5 3 11 6 NNE 1015,2 50 0,0
21.05.2019 04:00:00 8,9 6,9 6 3 11 6 NNE 1015,3 50 0,0
21.05.2019 03:00:00 9,7 7,3 5 3 11 6 NNE 1015,2 50 0,0
21.05.2019 02:00:00 10,4 8,0 4 2 9 5 N 1015,3 50 0,0
21.05.2019 01:00:00 11,2 8,9 2 1 8 4 NNE 1015,1 50 0,0
21.05.2019 00:00:00 11,3 8,7 0 0 7 4 N 1014,9 50 0,0
20.05.2019 23:00:00 12,4 8,5 4 2 8 4 NNE 1014,5 50 0,0
20.05.2019 22:00:00 13,4 8,5 3 1 6 3 N 1014,2 50 0,0
20.05.2019 21:00:00 14,6 9,4 0 0 7 4 N 1013,8 50 0,0
20.05.2019 20:00:00 15,9 8,9 5 3 10 6 NE 1013,6 46 0,0
20.05.2019 19:00:00 16,4 9,1 4 2 9 5 NNE 1013,5 50 0,0
20.05.2019 18:00:00 16,7 8,4 3 2 10 5 N 1013,6 50 0,0
20.05.2019 17:00:00 16,7 7,9 4 2 13 7 NW 1013,7 50 0,0
20.05.2019 16:00:00 16,6 8,3 4 2 14 8 NE 1013,7 49 0,0
20.05.2019 15:00:00 16,3 9,5 4 2 13 7 N 1014,0 46 0,0
20.05.2019 14:00:00 15,2 8,7 2 1 8 4 NE 1014,3 50 0,0
20.05.2019 13:00:00 15,3 8,5 5 3 18 10 NNE 1014,0 48 0,0
20.05.2019 12:00:00 14,7 8,6 6 3 19 11 WNW 1014,2 50 0,0
20.05.2019 11:00:00 14,2 9,6 6 4 16 8 WSW 1014,2 47 0,0
20.05.2019 10:00:00 11,8 9,7 8 4 13 7 SW 1014,6 47 0,0
20.05.2019 09:00:00 11,0 9,4 6 4 13 7 SW 1014,4 50 0,0
20.05.2019 08:00:00 10,3 9,5 8 5 14 8 SW 1014,3 31 0,0
20.05.2019 07:00:00 10,3 9,7 6 3 14 7 SW 1014,2 7 0,0
20.05.2019 06:00:00 10,3 9,7 3 1 6 3 WSW 1014,0 12 0,0
20.05.2019 05:00:00 10,5 9,7 4 2 7 4 S 1013,9 28 0,0
20.05.2019 04:00:00 10,7 9,6 3 2 6 3 S 1013,9 46 0,0
20.05.2019 03:00:00 10,8 9,7 4 2 8 4 SSW 1014,0 49 0,0
20.05.2019 02:00:00 10,6 9,0 5 3 8 5 SSW 1014,1 50 0,0
20.05.2019 01:00:00 11,5 8,9 4 2 8 4 SSW 1014,1 50 0,0
20.05.2019 00:00:00 10,9 9,2 0 0 4 2 N 1014,1 50 0,0
19.05.2019 23:00:00 10,7 9,1 0 0 9 5 N 1014,4 50 0,0
19.05.2019 22:00:00 11,0 9,3 0 0 10 5 N 1014,1 50 0,0
19.05.2019 21:00:00 11,1 9,2 5 3 13 7 NE 1014,1 50 0,0
19.05.2019 20:00:00 11,8 9,4 6 3 11 6 NE 1014,0 50 0,0
19.05.2019 19:00:00 12,1 9,8 6 3 11 6 NE 1014,2 50 0,2
19.05.2019 18:00:00 12,3 9,5 3 1 16 8 NW 1014,9 50 0,1
19.05.2019 17:00:00 12,7 9,7 4 2 9 5 NE 1015,3 39 0,1
19.05.2019 16:00:00 12,9 8,8 3 1 8 5 NW 1015,6 50 0,1
19.05.2019 15:00:00 13,8 9,4 3 2 9 5 WSW 1015,8 39 0,2
19.05.2019 14:00:00 16,0 6,1 4 2 7 4 SSW 1015,5 50 0,0
19.05.2019 13:00:00 16,5 6,6 0 0 5 3 N 1015,3 47 0,0
19.05.2019 12:00:00 17,0 5,3 3 2 8 4 SW 1015,4 50 0,0
19.05.2019 11:00:00 16,8 4,5 3 2 11 6 SSW 1015,5 50 0,0
19.05.2019 10:00:00 15,9 4,9 5 3 12 6 SSW 1016,1 49 0,0
19.05.2019 09:00:00 15,3 2,5 7 4 11 6 ESE 1016,3 50 0,0
19.05.2019 08:00:00 13,3 5,2 2 1 6 3 NE 1016,6 50 0,0
19.05.2019 07:00:00 10,7 5,7 4 2 6 3 NE 1017,2 50 0,0
19.05.2019 06:00:00 10,5 5,1 3 1 6 3 E 1017,4 50 0,0
19.05.2019 05:00:00 8,3 4,5 4 2 8 4 ESE 1018,0 50 0,0
19.05.2019 04:00:00 10,9 3,7 4 2 10 6 SSE 1017,6 50 0,0
19.05.2019 03:00:00 11,1 3,9 4 2 10 5 SE 1017,7 50 0,0
19.05.2019 02:00:00 11,6 4,1 5 3 10 5 S 1017,9 50 0,0
19.05.2019 01:00:00 12,2 4,2 7 4 14 7 S 1018,0 50 0,0
19.05.2019 00:00:00 12,9 4,1 8 4 16 8 S 1018,1 50 0,0
18.05.2019 23:00:00 14,3 4,0 8 5 13 7 S 1017,7 50 0,0
18.05.2019 22:00:00 15,1 3,3 8 4 13 7 SSW 1017,4 50 0,0
18.05.2019 21:00:00 17,4 2,6 5 3 11 6 S 1016,7 50 0,0
18.05.2019 20:00:00 18,9 2,7 7 4 19 10 S 1016,6 50 0,0
18.05.2019 19:00:00 20,3 2,2 7 4 15 8 S 1016,7 50 0,0
18.05.2019 18:00:00 20,0 2,8 10 5 22 12 S 1017,2 50 0,0
18.05.2019 17:00:00 20,7 0,5 12 6 24 13 S 1017,3 50 0,0
18.05.2019 16:00:00 20,2 1,1 11 6 24 13 S 1018,1 48 0,0
18.05.2019 15:00:00 19,7 2,1 11 6 24 13 S 1018,5 50 0,0
18.05.2019 14:00:00 19,1 0,2 15 8 26 14 SSW 1019,2 50 0,0
18.05.2019 13:00:00 18,5 1,5 9 5 27 14 SSE 1019,9 38 0,0
18.05.2019 12:00:00 17,6 1,5 14 7 25 13 SSW 1020,8 46 0,0
18.05.2019 11:00:00 15,8 1,5 11 6 23 12 SSW 1021,4 49 0,0
18.05.2019 10:00:00 14,7 1,6 11 6 23 13 S 1021,9 50 0,0
18.05.2019 09:00:00 13,4 4,5 9 5 16 9 S 1022,2 50 0,0
18.05.2019 08:00:00 11,9 4,6 6 4 15 8 S 1022,8 48 0,0
18.05.2019 07:00:00 10,0 4,2 6 3 12 7 S 1023,3 50 0,0
18.05.2019 06:00:00 8,6 4,6 3 2 8 4 E 1023,7 50 0,0
18.05.2019 05:00:00 7,0 4,5 4 2 9 5 E 1024,2 50 0,0

tt = Température de l'air
td = dewpoint
ff = Vitesse du vent
fx = gusts
dd = Direction du vent
ppp = reduced air pressure
vv = visibility
rr = Quantités de précipitations

stations d'obs. à proximité